GW3577 Weather Reports


Display with metric or nautical units.
time (UTC)temp
F
wind
direction
speed
MPH
gust
MPH
rain 1hr
in
rain 24hr
in
rain mn
in
humidity
%
barometer
mb
20260902165336 98 194 1.0 4.0 0.00 0.00 0.00 42 1018.5
20260902164832 98 194 1.0 3.0 0.00 0.00 0.00 42 1018.5
20260902164327 98 252 1.0 3.0 0.00 0.00 0.00 42 1018.5
20260902163825 97 217 4.0 6.0 0.00 0.00 0.00 46 1018.5
20260902163320 96 226 4.0 7.0 0.00 0.00 0.00 45 1018.5
20260902162818 97 238 8.0 9.0 0.00 0.00 0.00 45 1018.8
20260902162313 96 143 2.0 5.0 0.00 0.00 0.00 44 1018.8
20260902161808 96 133 3.0 6.0 0.00 0.00 0.00 44 1018.8
20260902161304 96 134 5.0 10.0 0.00 0.00 0.00 45 1018.8
20260902160800 96 110 6.0 9.0 0.00 0.00 0.00 45 1018.8
20260902160255 96 134 2.0 5.0 0.00 0.00 0.00 44 1018.8
20260902155752 96 111 1.0 2.0 0.00 0.00 0.00 44 1018.8
20260902155251 96 188 4.0 5.0 0.00 0.00 0.00 45 1019.2
20260902154741 97 213 3.0 5.0 0.00 0.00 0.00 45 1019.2
20260902154237 96 190 0.0 2.0 0.00 0.00 0.00 47 1019.2
20260902153736 96 201 1.0 2.0 0.00 0.00 0.00 47 1019.5
20260902153236 95 126 4.0 5.0 0.00 0.00 0.00 46 1019.2
20260902152732 96 85 6.0 9.0 0.00 0.00 0.00 46 1019.2
20260902152227 95 254 0.0 0.0 0.00 0.00 0.00 49 1019.5
20260902151723 96 254 4.0 8.0 0.00 0.00 0.00 49 1019.5
20260902151218 95 292 1.0 4.0 0.00 0.00 0.00 49 1019.5
20260902150718 93 246 1.0 4.0 0.00 0.00 0.00 52 1019.5
20260902150214 94 233 6.0 7.0 0.00 0.00 0.00 48 1020.0
20260902145713 94 212 0.0 0.0 0.00 0.00 0.00 51 1019.5
20260902145212 92 212 1.0 2.0 0.00 0.00 0.00 54 1019.5
20260902144709 92 212 4.0 5.0 0.00 0.00 0.00 58 1019.5
20260902144204 91 204 3.0 4.0 0.00 0.00 0.00 59 1019.5
20260902143659 92 193 3.0 5.0 0.00 0.00 0.00 58 1019.5
20260902143154 92 143 4.0 6.0 0.00 0.00 0.00 59 1019.5
20260902142650 91 143 0.0 2.0 0.00 0.00 0.00 58 1020.0
20260902142146 90 129 3.0 5.0 0.00 0.00 0.00 59 1019.5
20260902141645 91 22 1.0 2.0 0.00 0.00 0.00 59 1020.0
20260902141141 91 22 0.0 0.0 0.00 0.00 0.00 59 1020.0
20260902140636 91 12 0.0 2.0 0.00 0.00 0.00 58 1020.0
20260902140131 91 4 2.0 4.0 0.00 0.00 0.00 59 1020.0
20260902135630 89 4 2.0 4.0 0.00 0.00 0.00 61 1020.0
20260902135126 88 4 0.0 0.0 0.00 0.00 0.00 63 1020.0
20260902134621 88 145 0.0 2.0 0.00 0.00 0.00 63 1020.0
20260902134121 88 145 0.0 2.0 0.00 0.00 0.00 65 1020.0
20260902133621 87 145 0.0 0.0 0.00 0.00 0.00 66 1020.0
20260902133122 86 145 0.0 0.0 0.00 0.00 0.00 69 1020.0
20260902132617 84 145 0.0 0.0 0.00 0.00 0.00 71 1020.0
20260902132112 84 145 0.0 2.0 0.00 0.00 0.00 71 1020.0
20260902131608 83 145 2.0 4.0 0.00 0.00 0.00 73 1020.0
20260902131103 82 145 3.0 3.0 0.00 0.00 0.00 74 1020.0
20260902130559 82 145 1.0 2.0 0.00 0.00 0.00 75 1020.3
20260902130054 81 145 2.0 3.0 0.00 0.00 0.00 75 1020.3
20260902125550 81 145 3.0 4.0 0.00 0.00 0.00 75 1020.0
20260902125045 81 145 2.0 3.0 0.00 0.00 0.00 77 1020.0
20260902124542 81 145 0.0 2.0 0.00 0.00 0.00 80 1020.0
20260902124036 81 343 0.0 0.0 0.00 0.00 0.00 78 1020.0
20260902123532 80 343 0.0 0.0 0.00 0.00 0.00 84 1020.0
20260902123032 79 343 0.0 0.0 0.00 0.00 0.00 85 1020.0
20260902122526 77 343 0.0 0.0 0.00 0.00 0.00 87 1020.3
20260902122022 76 343 0.0 0.0 0.00 0.00 0.00 88 1020.3
20260902121521 75 343 0.0 0.0 0.00 0.00 0.00 88 1020.3
20260902121016 75 343 0.0 0.0 0.00 0.00 0.00 90 1020.3
20260902120513 74 343 0.0 0.0 0.00 0.00 0.00 90 1020.3
20260902120008 73 343 0.0 0.0 0.00 0.00 0.00 92 1020.3
20260902115503 72 343 0.0 0.0 0.00 0.00 0.00 94 1020.3
20260902115000 72 343 0.0 1.0 0.00 0.00 0.00 96 1020.3
20260902114455 71 343 0.0 0.0 0.00 0.00 0.00 97 1020.3
20260902113950 71 343 0.0 0.0 0.00 0.00 0.00 97 1020.3
20260902113447 70 343 0.0 0.0 0.00 0.00 0.00 96 1020.3
20260902112945 70 343 0.0 0.0 0.00 0.00 0.00 96 1020.3
20260902112442 70 343 0.0 0.0 0.00 0.00 0.00 96 1020.3
20260902111938 70 343 0.0 0.0 0.00 0.00 0.00 96 1020.3
20260902111434 69 343 0.0 0.0 0.00 0.00 0.00 97 1020.3
20260902110929 69 343 0.0 0.0 0.00 0.00 0.00 97 1020.3
20260902110426 69 343 0.0 0.0 0.00 0.00 0.00 96 1020.3
20260902105925 69 343 0.0 0.0 0.00 0.00 0.00 96 1020.3
20260902105421 69 343 0.0 0.0 0.00 0.00 0.00 96 1020.0
20260902104916 70 343 0.0 0.0 0.00 0.00 0.00 96 1020.0
20260902104412 70 343 0.0 0.0 0.00 0.00 0.00 96 1020.0
20260902103911 70 343 0.0 0.0 0.00 0.00 0.00 96 1020.3
20260902103406 70 343 0.0 0.0 0.00 0.00 0.00 96 1020.0
20260902102901 69 343 0.0 0.0 0.00 0.00 0.00 96 1020.3
20260902102359 70 343 0.0 0.0 0.00 0.00 0.00 96 1020.3
20260902101854 70 343 0.0 0.0 0.00 0.00 0.00 96 1020.0
20260902101349 69 343 0.0 0.0 0.00 0.00 0.00 97 1020.0
20260902100848 69 343 0.0 0.0 0.00 0.00 0.00 97 1020.0
20260902100342 69 343 0.0 0.0 0.00 0.00 0.00 96 1020.0
20260902095837 70 343 0.0 0.0 0.00 0.00 0.00 96 1020.0
20260902095332 70 343 0.0 0.0 0.00 0.00 0.00 95 1020.0
20260902094831 71 343 0.0 0.0 0.00 0.00 0.00 95 1020.0
20260902094328 71 343 0.0 0.0 0.00 0.00 0.00 94 1020.0
20260902093826 70 343 0.0 2.0 0.00 0.00 0.00 96 1020.0
20260902093322 70 343 0.0 0.0 0.00 0.00 0.00 97 1019.5
20260902092821 70 343 0.0 0.0 0.00 0.00 0.00 97 1020.0
20260902092316 70 343 0.0 0.0 0.00 0.00 0.00 97 1020.0
20260902091811 70 343 0.0 0.0 0.00 0.00 0.00 97 1020.0
20260902091307 70 343 0.0 0.0 0.00 0.00 0.00 96 1019.5
20260902090804 70 343 0.0 0.0 0.00 0.00 0.00 96 1019.5
20260902090302 70 343 0.0 0.0 0.00 0.00 0.00 96 1020.0
20260902085802 70 343 0.0 0.0 0.00 0.00 0.00 96 1020.0
20260902085257 70 343 0.0 0.0 0.00 0.00 0.00 95 1019.5
20260902084753 70 343 0.0 0.0 0.00 0.00 0.00 95 1020.0
20260902084248 70 343 0.0 0.0 0.00 0.00 0.00 94 1019.5
20260902083743 71 343 0.0 0.0 0.00 0.00 0.00 94 1019.5
20260902083238 71 343 0.0 0.0 0.00 0.00 0.00 94 1019.5
20260902082733 71 343 0.0 0.0 0.00 0.00 0.00 94 1019.5
20260902082230 71 343 0.0 0.0 0.00 0.00 0.00 93 1019.5
20260902081726 72 343 0.0 0.0 0.00 0.00 0.00 93 1019.5
20260902081221 72 343 0.0 0.0 0.00 0.00 0.00 93 1019.5
20260902080716 72 343 0.0 0.0 0.00 0.00 0.00 93 1019.5
20260902080212 71 343 0.0 0.0 0.00 0.00 0.00 94 1019.5
20260902075706 71 343 0.0 0.0 0.00 0.00 0.00 95 1019.5
20260902075202 71 343 0.0 0.0 0.00 0.00 0.00 95 1019.5
20260902074656 71 343 0.0 0.0 0.00 0.00 0.00 95 1019.5
20260902074151 71 343 0.0 0.0 0.00 0.00 0.00 95 1019.5
20260902073647 71 343 0.0 0.0 0.00 0.00 0.00 94 1019.5
20260902073143 71 343 0.0 0.0 0.00 0.00 0.00 94 1019.5
20260902072638 71 343 0.0 0.0 0.00 0.00 0.00 95 1019.5
20260902072135 71 343 0.0 0.0 0.00 0.00 0.00 95 1020.0
20260902071630 71 343 0.0 0.0 0.00 0.00 0.00 94 1019.5
20260902071126 71 343 0.0 0.0 0.00 0.00 0.00 94 1020.0
20260902070621 71 343 0.0 0.0 0.00 0.00 0.00 94 1019.5
20260902070116 71 336 0.0 2.0 0.00 0.00 0.00 95 1019.5
20260902065615 71 318 0.0 0.0 0.00 0.00 0.00 95 1019.5
20260902065111 71 318 0.0 0.0 0.00 0.00 0.00 95 1019.5
20260902064607 71 318 0.0 0.0 0.00 0.00 0.00 95 1019.5
20260902064101 71 318 0.0 0.0 0.00 0.00 0.00 95 1020.0
20260902063556 71 318 0.0 0.0 0.00 0.00 0.00 94 1019.5
20260902063051 71 318 0.0 0.0 0.00 0.00 0.00 94 1019.5
20260902062550 71 318 0.0 0.0 0.00 0.00 0.00 93 1020.0
20260902062046 71 318 0.0 0.0 0.00 0.00 0.00 94 1020.0
20260902061545 71 318 0.0 0.0 0.00 0.00 0.00 94 1020.0
20260902061041 71 318 0.0 0.0 0.00 0.00 0.00 94 1020.0
20260902060538 71 318 0.0 0.0 0.00 0.00 0.00 93 1020.0
20260902060034 72 318 0.0 0.0 0.00 0.00 0.00 93 1019.5
20260902055529 72 318 0.0 0.0 0.00 0.00 0.00 92 1019.5
20260902055024 73 318 0.0 0.0 0.00 0.00 0.00 90 1019.5
20260902054519 73 318 0.0 0.0 0.00 0.00 0.00 90 1019.5
20260902054015 72 317 4.0 6.0 0.00 0.00 0.00 92 1020.0
20260902053510 72 317 2.0 5.0 0.00 0.00 0.00 93 1020.0
20260902053009 72 317 2.0 5.0 0.00 0.00 0.00 92 1019.5
20260902052504 72 317 0.0 0.0 0.00 0.00 0.00 93 1019.5
20260902051959 71 317 0.0 0.0 0.00 0.00 0.00 94 1019.5
20260902051454 72 317 0.0 0.0 0.00 0.00 0.00 93 1019.5
20260902050952 72 317 0.0 0.0 0.00 0.00 0.00 93 1019.5
20260902050447 72 317 0.0 0.0 0.00 0.00 0.00 93 1019.5
20260902045942 72 317 0.0 0.0 0.00 0.00 0.00 93 1019.5
20260902045437 72 317 0.0 0.0 0.00 0.00 0.00 92 1019.5
20260902044933 73 317 0.0 0.0 0.00 0.00 0.00 91 1019.5
20260902044423 73 317 0.0 0.0 0.00 0.00 0.00 89 1019.5
20260902043918 74 317 0.0 0.0 0.00 0.00 0.00 88 1019.5
20260902043408 73 317 3.0 4.0 0.00 0.00 0.00 89 1019.2
20260902042903 73 298 1.0 3.0 0.00 0.00 0.00 89 1019.2
20260902042402 74 298 0.0 0.0 0.00 0.00 0.00 89 1019.2
20260902041857 73 298 0.0 0.0 0.00 0.00 0.00 90 1019.2
20260902041352 74 298 0.0 0.0 0.00 0.00 0.00 88 1019.2
20260902040850 74 298 0.0 0.0 0.00 0.00 0.00 89 1018.8
20260902040346 74 298 1.0 4.0 0.00 0.00 0.00 88 1018.8
20260902035845 74 298 0.0 0.0 0.00 0.00 0.00 89 1018.8
20260902035340 74 298 0.0 0.0 0.00 0.00 0.00 88 1018.8
20260902034839 74 298 0.0 0.0 0.00 0.00 0.00 89 1018.8
20260902034335 74 298 1.0 3.0 0.00 0.00 0.00 89 1018.8
20260902033832 73 298 0.0 0.0 0.00 0.00 0.00 89 1018.8
20260902033328 74 311 2.0 6.0 0.00 0.00 0.00 88 1018.8
20260902032827 74 319 1.0 5.0 0.00 0.00 0.00 89 1018.8
20260902032322 74 319 0.0 0.0 0.00 0.00 0.00 88 1018.8
20260902031821 74 319 0.0 0.0 0.00 0.00 0.00 88 1018.8
20260902031317 73 319 0.0 0.0 0.00 0.00 0.00 89 1018.5
20260902030813 73 319 0.0 0.0 0.00 0.00 0.00 90 1018.8
20260902030308 73 319 0.0 3.0 0.00 0.00 0.00 89 1018.8
20260902025807 73 319 0.0 0.0 0.00 0.00 0.00 88 1018.8
20260902025306 74 319 0.0 0.0 0.00 0.00 0.00 87 1018.8
20260902024756 74 319 2.0 4.0 0.00 0.00 0.00 86 1018.8
20260902024252 75 319 0.0 0.0 0.00 0.00 0.00 86 1018.8
20260902023747 74 319 0.0 0.0 0.00 0.00 0.00 86 1018.8
20260902023242 75 319 0.0 0.0 0.00 0.00 0.00 84 1018.8
20260902022736 75 319 0.0 0.0 0.00 0.00 0.00 85 1018.8
20260902022232 75 319 0.0 0.0 0.00 0.00 0.00 86 1018.8
20260902021727 76 319 1.0 4.0 0.00 0.00 0.00 83 1018.8
20260902021221 75 315 5.0 6.0 0.00 0.00 0.00 84 1018.8
20260902020718 75 300 5.0 7.0 0.00 0.00 0.00 84 1018.5
20260902020213 75 300 0.0 0.0 0.00 0.00 0.00 85 1018.8
20260902015709 76 300 0.0 0.0 0.00 0.00 0.00 84 1018.5
20260902015205 76 300 2.0 3.0 0.00 0.00 0.00 85 1018.5
20260902014701 76 300 0.0 0.0 0.00 0.00 0.00 85 1018.5
20260902014156 76 300 0.0 0.0 0.00 0.00 0.00 84 1018.5
20260902013655 77 300 0.0 0.0 0.00 0.00 0.00 82 1018.5
20260902013151 76 300 0.0 0.0 0.00 0.00 0.00 82 1018.5
20260902012646 76 300 0.0 2.0 0.00 0.00 0.00 84 1018.2
20260902012141 77 300 0.0 0.0 0.00 0.00 0.00 83 1018.2
20260902011637 77 300 1.0 4.0 0.00 0.00 0.00 83 1018.2
20260902011131 77 300 2.0 4.0 0.00 0.00 0.00 83 1018.2
20260902010630 77 289 4.0 6.0 0.00 0.00 0.00 83 1018.2
20260902010127 79 319 0.0 0.0 0.00 0.00 0.00 79 1018.2
20260902005624 79 319 0.0 0.0 0.00 0.00 0.00 79 1018.2
20260902005121 79 319 0.0 0.0 0.00 0.00 0.00 76 1017.8
20260902004619 79 319 0.0 0.0 0.00 0.00 0.00 78 1017.8
20260902004115 79 315 0.0 4.0 0.00 0.00 0.00 80 1017.8
20260902003610 78 297 1.0 4.0 0.00 0.00 0.00 83 1017.5
20260902003106 79 271 3.0 4.0 0.00 0.00 0.00 83 1017.5
20260902002601 79 271 3.0 4.0 0.00 0.00 0.00 81 1017.5
20260902002056 80 271 2.0 3.0 0.00 0.00 0.00 79 1017.2
20260902001550 82 271 1.0 4.0 0.00 0.00 0.00 77 1017.2
20260902001046 83 271 0.0 0.0 0.00 0.00 0.00 75 1017.2
20260902000540 83 271 0.0 0.0 0.00 0.00 0.00 74 1017.2
20260902000035 83 271 0.0 0.0 0.00 0.00 0.00 73 1017.5
20260901235529 83 271 0.0 0.0 0.00 0.00 0.00 71 1017.2
20260901235026 83 271 0.0 0.0 0.00 0.00 0.00 71 1017.2
20260901234524 83 271 0.0 0.0 0.00 0.00 0.00 73 1017.2
20260901234020 84 271 0.0 0.0 0.00 0.00 0.00 73 1017.2
20260901233514 84 271 0.0 0.0 0.00 0.00 0.00 71 1017.2
20260901233010 85 271 0.0 0.0 0.00 0.00 0.00 70 1017.5
20260901232506 86 271 2.0 3.0 0.00 0.00 0.00 67 1017.5
20260901232006 87 271 0.0 0.0 0.00 0.00 0.00 65 1017.2
20260901231502 87 271 3.0 4.0 0.00 0.00 0.00 62 1017.5
20260901230959 88 271 4.0 4.0 0.00 0.00 0.00 61 1017.2
20260901230458 89 290 4.0 6.0 0.00 0.00 0.00 61 1017.5
20260901225953 89 275 4.0 5.0 0.00 0.00 0.00 60 1017.2
20260901225448 89 270 3.0 4.0 0.00 0.00 0.00 58 1017.5
20260901224943 90 279 3.0 4.0 0.00 0.00 0.00 58 1017.5
20260901224439 90 297 3.0 5.0 0.00 0.00 0.00 57 1017.2
20260901223935 90 265 3.0 4.0 0.00 0.00 0.00 57 1017.2
20260901223430 91 261 4.0 6.0 0.00 0.00 0.00 55 1017.2
20260901222926 91 275 3.0 6.0 0.00 0.00 0.00 55 1017.2
20260901222422 91 248 4.0 5.0 0.00 0.00 0.00 56 1017.2
20260901221918 91 285 3.0 6.0 0.00 0.00 0.00 55 1017.2
20260901221413 92 289 4.0 5.0 0.00 0.00 0.00 53 1017.2
20260901220908 93 243 3.0 4.0 0.00 0.00 0.00 54 1017.2
20260901220407 93 289 0.0 0.0 0.00 0.00 0.00 53 1017.2
20260901215906 93 289 0.0 3.0 0.00 0.00 0.00 52 1017.2
20260901215405 94 290 4.0 6.0 0.00 0.00 0.00 51 1017.2
20260901214904 94 283 3.0 6.0 0.00 0.00 0.00 51 1017.2
20260901214403 94 255 4.0 6.0 0.00 0.00 0.00 50 1017.2
20260901213903 94 288 4.0 6.0 0.00 0.00 0.00 51 1017.2
20260901213358 94 286 4.0 4.0 0.00 0.00 0.00 51 1017.2
20260901212857 95 261 3.0 6.0 0.00 0.00 0.00 50 1017.2
20260901212352 94 257 4.0 6.0 0.00 0.00 0.00 50 1017.2
20260901211849 96 272 5.0 8.0 0.00 0.00 0.00 48 1017.2
20260901211344 98 297 4.0 6.0 0.00 0.00 0.00 46 1017.2
20260901210840 99 324 0.0 4.0 0.00 0.00 0.00 45 1017.2
20260901210335 98 334 5.0 7.0 0.00 0.00 0.00 46 1017.5
20260901205832 97 352 3.0 7.0 0.00 0.00 0.00 46 1017.2
20260901205331 96 248 4.0 6.0 0.00 0.00 0.00 48 1017.2
20260901204826 97 298 7.0 9.0 0.00 0.00 0.00 48 1017.2
20260901204322 96 265 0.0 3.0 0.00 0.00 0.00 50 1017.5
20260901203817 96 252 6.0 10.0 0.00 0.00 0.00 48 1017.2
20260901203311 96 254 4.0 6.0 0.00 0.00 0.00 49 1017.2
20260901202806 96 241 5.0 7.0 0.00 0.00 0.00 48 1017.2
20260901202301 97 262 5.0 6.0 0.00 0.00 0.00 46 1017.2
20260901201757 98 296 3.0 6.0 0.00 0.00 0.00 46 1017.5
20260901201256 99 289 3.0 7.0 0.00 0.00 0.00 46 1017.5
20260901200750 98 292 5.0 8.0 0.00 0.00 0.00 47 1017.5
20260901200246 96 222 3.0 4.0 0.00 0.00 0.00 48 1017.5
20260901195744 96 246 4.0 6.0 0.00 0.00 0.00 49 1017.5
20260901195238 97 271 4.0 7.0 0.00 0.00 0.00 48 1017.5
20260901194733 97 266 4.0 7.0 0.00 0.00 0.00 47 1017.5
20260901194228 98 276 4.0 6.0 0.00 0.00 0.00 45 1017.5
20260901193725 99 298 5.0 8.0 0.00 0.00 0.00 45 1017.8
20260901193223 99 301 6.0 10.0 0.00 0.00 0.00 45 1017.8
20260901192718 96 281 5.0 7.0 0.00 0.00 0.00 49 1017.8
20260901192214 96 248 10.0 11.0 0.00 0.00 0.00 49 1017.8
20260901191709 96 237 5.0 6.0 0.00 0.00 0.00 48 1017.8
20260901191205 95 241 4.0 5.0 0.00 0.00 0.00 49 1018.2
20260901190701 96 244 6.0 10.0 0.00 0.00 0.00 48 1018.2
20260901190200 98 241 5.0 10.0 0.00 0.00 0.00 45 1018.2
20260901185659 99 307 0.0 2.0 0.00 0.00 0.00 44 1018.2
20260901185157 97 313 6.0 8.0 0.00 0.00 0.00 45 1018.2
20260901184653 99 340 7.0 11.0 0.00 0.00 0.00 44 1018.2
20260901184148 98 302 7.0 10.0 0.00 0.00 0.00 44 1018.2
20260901183643 100 327 8.0 11.0 0.00 0.00 0.00 44 1018.2
20260901183138 100 262 5.0 8.0 0.00 0.00 0.00 43 1018.2
20260901182634 99 343 7.0 10.0 0.00 0.00 0.00 43 1018.2
20260901182133 99 321 6.0 11.0 0.00 0.00 0.00 43 1018.2
20260901181628 97 1 6.0 10.0 0.00 0.00 0.00 45 1018.2
20260901181122 98 336 6.0 9.0 0.00 0.00 0.00 43 1018.2
20260901180616 99 334 7.0 11.0 0.00 0.00 0.00 43 1018.2
20260901180111 99 5 5.0 9.0 0.00 0.00 0.00 43 1018.2
20260901175609 97 321 6.0 10.0 0.00 0.00 0.00 45 1018.2
20260901175104 98 252 5.0 8.0 0.00 0.00 0.00 45 1018.2
20260901174600 98 290 7.0 11.0 0.00 0.00 0.00 44 1018.2
20260901174055 99 287 9.0 12.0 0.00 0.00 0.00 43 1018.2
20260901173550 98 310 1.0 5.0 0.00 0.00 0.00 43 1018.2
20260901173046 98 336 3.0 7.0 0.00 0.00 0.00 42 1018.2
20260901172541 99 323 4.0 7.0 0.00 0.00 0.00 41 1018.2
20260901172039 99 333 4.0 7.0 0.00 0.00 0.00 40 1017.8
20260901171538 98 280 0.0 0.0 0.00 0.00 0.00 40 1018.2
20260901171037 98 323 4.0 6.0 0.00 0.00 0.00 41 1018.2
20260901170532 97 340 4.0 8.0 0.00 0.00 0.00 42 1018.2
20260901170026 95 327 0.0 3.0 0.00 0.00 0.00 44 1018.2